Location: Newark
(54.6833°N, 25.2833°E)
Time: 10:58:06
(UTC+00:00)

Transit 4A - All Passes

Search period start: 21 January 2021 00:00
Search period end: 31 January 2021 00:00
Orbit: 864 x 980 km, 66.8° (Epoch: 20 January)

Date Brightness Start Highest point End Pass type
(mag) Time Alt. Az. Time Alt. Az. Time Alt. Az.
21 Jan - 00:17:44 10° NW 00:23:33 36° NNE 00:29:12 10° E visible
21 Jan - 02:04:22 10° NW 02:10:42 88° NE 02:16:47 10° SE visible
21 Jan - 03:51:28 10° WNW 03:56:23 25° WSW 04:01:10 10° SSW visible
21 Jan - 17:18:34 10° S 17:23:58 29° ESE 17:29:20 10° NE visible
21 Jan - 19:03:24 10° SW 19:09:51 82° NW 19:16:15 10° NE visible
21 Jan - 20:51:16 10° W 20:57:05 35° NNW 21:02:51 10° NE visible
21 Jan - 22:39:50 10° NW 22:45:11 27° N 22:50:27 10° ENE night (unlit)
22 Jan - 00:27:11 10° NW 00:33:09 42° NNE 00:38:58 10° E visible
22 Jan - 02:13:45 10° NW 02:20:00 73° SW 02:26:02 10° SSE visible
22 Jan - 04:01:21 10° WNW 04:05:22 18° WSW 04:09:18 10° SW visible
22 Jan - 17:27:12 10° S 17:33:04 39° ESE 17:38:55 10° NE visible
22 Jan - 19:12:52 10° SW 19:19:15 66° NW 19:25:35 10° NE visible
22 Jan - 21:01:06 10° W 21:06:45 31° NNW 21:12:19 10° NE visible
22 Jan - 22:49:30 10° NW 22:54:56 28° N 23:00:14 10° ENE night (unlit)
23 Jan - 00:36:34 10° NW 00:42:42 50° NE 00:48:38 10° ESE night (unlit)
23 Jan - 02:23:10 10° NW 02:29:14 55° WSW 02:35:07 10° SSE visible
23 Jan - 04:11:47 10° WNW 04:14:16 13° W 04:16:43 10° SW visible
23 Jan - 15:54:46 10° ESE 15:57:13 12° E 15:59:38 10° ENE visible
23 Jan - 17:36:04 10° SSW 17:42:14 52° ESE 17:48:23 10° NE visible
23 Jan - 19:22:28 10° WSW 19:28:44 54° NW 19:34:57 10° NE visible
23 Jan - 21:10:56 10° WNW 21:16:26 29° NNW 21:21:51 10° NE visible
23 Jan - 22:59:05 10° NW 23:04:38 30° NNE 23:10:02 10° ENE night (unlit)
24 Jan - 00:45:57 10° NW 00:52:12 61° NE 00:58:13 10° ESE night (unlit)
24 Jan - 02:32:39 10° NW 02:38:25 41° WSW 02:44:00 10° S visible
24 Jan - 16:02:05 10° SE 16:06:07 18° ESE 16:10:08 10° ENE visible
24 Jan - 17:45:07 10° SSW 17:51:29 68° SE 17:57:48 10° NE visible
24 Jan - 19:32:09 10° WSW 19:38:16 45° NNW 19:44:19 10° NE visible
24 Jan - 21:20:46 10° WNW 21:26:10 28° N 21:31:28 10° NE visible
24 Jan - 23:08:37 10° NW 23:14:18 33° NNE 23:19:51 10° E night (unlit)
25 Jan - 00:55:19 10° NW 01:01:37 77° NE 01:07:42 10° SE night (unlit)
25 Jan - 02:42:13 10° NW 02:47:31 30° WSW 02:52:40 10° S visible
25 Jan - 16:10:09 10° SSE 16:15:07 24° ESE 16:20:04 10° ENE visible
25 Jan - 17:54:20 10° SW 18:00:48 87° SE 18:07:10 10° NE visible
25 Jan - 19:41:55 10° W 19:47:51 38° NNW 19:53:42 10° NE visible
25 Jan - 21:30:33 10° WNW 21:35:53 27° N 21:41:09 10° ENE visible
25 Jan - 23:18:05 10° NW 23:23:56 38° NNE 23:29:38 10° E night (unlit)
26 Jan - 01:04:41 10° NW 01:10:58 85° SW 01:17:02 10° SE night (unlit)
26 Jan - 02:51:55 10° WNW 02:56:32 22° WSW 03:01:03 10° SSW night (unlit)
26 Jan - 16:18:35 10° S 16:24:10 33° ESE 16:29:44 10° NE visible
26 Jan - 18:03:44 10° SW 18:10:10 76° NW 18:16:32 10° NE visible
26 Jan - 19:51:44 10° W 19:57:29 34° NNW 20:03:09 10° NE visible
26 Jan - 21:40:16 10° NW 21:45:38 28° N 21:50:53 10° ENE visible
26 Jan - 23:27:30 10° NW 23:33:31 44° NNE 23:39:21 10° ESE night (unlit)
27 Jan - 01:14:05 10° NW 01:20:16 66° SW 01:26:13 10° SSE night (unlit)
27 Jan - 03:01:57 10° WNW 03:05:29 16° WSW 03:08:59 10° SW night (unlit)
27 Jan - 16:27:18 10° S 16:33:17 43° ESE 16:39:15 10° NE visible
27 Jan - 18:13:14 10° WSW 18:19:36 61° NW 18:25:52 10° NE visible
27 Jan - 20:01:35 10° WNW 20:07:09 30° NNW 20:12:39 10° NE visible
27 Jan - 21:49:54 10° NW 21:55:20 29° N 22:00:39 10° ENE visible
27 Jan - 23:36:53 10° NW 23:43:03 54° NE 23:49:00 10° ESE night (unlit)
28 Jan - 01:23:30 10° NW 01:29:29 49° WSW 01:35:14 10° SSE night (unlit)
28 Jan - 03:12:58 10° W 03:14:22 11° W 03:15:46 10° WSW night (unlit)
28 Jan - 14:54:11 10° SE 14:57:20 14° ESE 15:00:28 10° ENE daylight
28 Jan - 16:36:14 10° SSW 16:42:29 58° ESE 16:48:42 10° NE visible
28 Jan - 18:22:52 10° WSW 18:29:05 50° NW 18:35:14 10° NE visible
28 Jan - 20:11:25 10° WNW 20:16:51 28° N 20:22:13 10° NE visible
28 Jan - 21:59:28 10° NW 22:05:02 31° NNE 22:10:28 10° E visible
28 Jan - 23:46:15 10° NW 23:52:31 66° NE 23:58:33 10° SE night (unlit)
29 Jan - 01:33:00 10° NW 01:38:37 37° WSW 01:44:03 10° S night (unlit)
29 Jan - 15:01:51 10° SSE 15:06:16 20° ESE 15:10:40 10° ENE daylight
29 Jan - 16:45:21 10° SSW 16:51:45 75° SE 16:58:06 10° NE visible
29 Jan - 18:32:35 10° W 18:38:38 42° NNW 18:44:36 10° NE visible
29 Jan - 20:21:14 10° WNW 20:26:35 27° N 20:31:51 10° NE visible
29 Jan - 22:08:57 10° NW 22:14:42 35° NNE 22:20:16 10° E visible
29 Jan - 23:55:37 10° NW 00:01:55 83° NE 00:07:58 10° SE night (unlit)
30 Jan - 01:42:37 10° NW 01:47:41 27° WSW 01:52:37 10° SSW night (unlit)
30 Jan - 15:10:04 10° SSE 15:15:17 27° ESE 15:20:28 10° NE daylight
30 Jan - 16:54:38 10° SW 17:01:05 87° NW 17:07:27 10° NE visible
30 Jan - 18:42:22 10° W 18:48:15 36° NNW 18:54:01 10° NE visible
30 Jan - 20:30:59 10° NW 20:36:19 27° N 20:41:33 10° ENE visible
30 Jan - 22:18:24 10° NW 22:24:19 40° NNE 22:30:02 10° E visible
